This demonstration page uses our WeatherBlox Daily Observations layout. Learn more.

Left ArrowRight Arrow

Hourly Observations for October 16, 2020

Temp ( °F °C ) Dew Point ( °F °C ) Humidity (%) Winds ( mph kmh ) Pressure ( in mb ) Visibility ( mi km ) Precip ( " mm )
12:53 am 00:53 Clear 36 2.2 24 -4.4 62 62 NW 7 11 30.35 1028 10 16 0.00 0.00
1:53 am 01:53 Clear 37 2.8 25 -3.9 62 62 WNW 8 13 30.36 1028 10 16 0.00 0.00
2:53 am 02:53 Clear 36 2.2 26 -3.3 67 67 WNW 7 11 30.36 1028 10 16 0.00 0.00
3:53 am 03:53 Clear 35 1.7 26 -3.3 70 70 W 8 13 30.37 1029 10 16 0.00 0.00
4:53 am 04:53 Clear 34 1.1 26 -3.3 73 73 WNW 6 9 30.36 1028 10 16 0.00 0.00
5:53 am 05:53 Clear 34 1.1 26 -3.3 73 73 WNW 7 11 30.35 1028 10 16 0.00 0.00
6:53 am 06:53 Clear 36 2.2 27 -2.8 70 70 W 8 13 30.36 1028 10 16 0.00 0.00
7:53 am 07:53 Sunny 37 2.8 27 -2.8 67 67 SW 6 9 30.35 1028 10 16 0.00 0.00
8:53 am 08:53 Sunny 40 4.4 29 -1.7 65 65 WSW 7 11 30.36 1028 10 16 0.00 0.00
9:53 am 09:53 Sunny 46 7.8 30 -1.1 54 54 W 12 19 30.35 1028 10 16 0.00 0.00
10:53 am 10:53 Partly Cloudy 50 10 28 -2.2 43 43 WNW 10 17 30.33 1027 10 16 0.00 0.00
11:53 am 11:53 Mostly Cloudy 52 11.1 28 -2.2 40 40 WNW 9 15 30.33 1027 10 16 0.00 0.00
12:53 pm 12:53 Mostly Cloudy 54 12.2 23 -5 30 30 W 9 15 30.27 1025 10 16 0.00 0.00
1:53 pm 13:53 Mostly Cloudy 57 13.9 23 -5 27 27 WSW 10 17 30.21 1023 10 16 0.00 0.00
2:53 pm 14:53 Sunny 59 15 25 -3.9 27 27 SW 9 15 30.14 1021 10 16 0.00 0.00
3:53 pm 15:53 Sunny 62 16.7 27 -2.8 26 26 SW 10 17 30.10 1019 10 16 0.00 0.00
4:53 pm 16:53 Sunny 61 16.1 27 -2.8 27 27 SSW 15 24 30.05 1018 10 16 0.00 0.00
5:53 pm 17:53 Sunny 60 15.6 28 -2.2 30 30 S 10 17 30.02 1017 10 16 0.00 0.00
6:53 pm 18:53 Clear 57 13.9 28 -2.2 33 33 S 10 17 29.98 1015 10 16 0.00 0.00
7:53 pm 19:53 Cloudy 56 13.3 27 -2.8 33 33 S 12 19 29.96 1015 10 16 0.00 0.00
8:53 pm 20:53 Cloudy 54 12.2 27 -2.8 35 35 S 13 20 29.93 1014 10 16 0.00 0.00
9:53 pm 21:53 Cloudy 54 12.2 28 -2.2 37 37 S 10 17 29.89 1012 10 16 0.00 0.00
10:53 pm 22:53 Partly Cloudy 54 12.2 29 -1.7 38 38 S 14 22 29.84 1011 10 16 0.00 0.00
11:53 pm 23:53 Clear 53 11.7 29 -1.7 40 40 S 12 19 29.81 1010 10 16 0.00 0.00

Powered by AerisWeather